www.pogodaiklimat.ru

Погода и климат >> Архив погоды >> Мальта >> Malta Airport


АРХИВ ПОГОДЫ в Malta Airport

Время (UTC), дата Ветер
(напр.,м/с)
 
Видим.   Явления Облачность Т
(С)
Тd
(С)
f
(%)
Тe
(С)
Тes
(С)
Комфортность P
(гПа)
Po
(гПа)
Тmin
(С)
Tmax
(С)
R
(мм)
R24
(мм)
S
(см)
03 9.07 СВ 2
{6}
10 км 1/1 210 м
[St]
+22.6 +21.5 94 +30 +30 очень
душно
1013.4 1003.0
06 9.07 ЮВ 5
{6}
12 км 3/0
[Ci sp]
+24.6 +20.4 77 +30 +32 очень
душно
1014.0 1003.6 +22.2 +25.9
09 9.07 СВ 4
{8}
18 км ясно +28.1 +19.4 59 +34 +45 очень
душно
1014.3 1004.0
12 9.07 С 3
{8}
25 км 1/1 900 м
[Cu hum]
+29.4 +19.6 56 +35 +52 опасность
солнечного
удара
1013.8 1003.5
15 9.07 ЮЗ 4
{8}
18 км 1/1 1200 м
[Cu hum Ci fib]
+29.0 +20.2 59 +35 +41 очень
душно
1013.6 1003.3
18 9.07 СВ 3
{8}
15 км 1/1 800 м
[Cu hum Ci fib]
+26.4 +20.3 69 +33 +33 очень
душно
1013.8 1003.4 +24.7 +30.3
21 9.07 З 2
{5}
15 км 1/1 600 м
[Sc]
+24.1 +20.9 82 +30 +30 очень
душно
1014.9 1004.4
00 10.07 СВ 1
{5}
12 км ясно +23.1 +15.8 63 +27 +27 душно 1013.7 1003.1
03 10.07 З 3
{4}
10 км 1/1 360 м
[Sc]
+22.8 +21.4 92 +30 +30 очень
душно
1013.7 1003.2
06 10.07 СВ 1
{5}
10 км 1/1 330 м
[Sc]
+24.9 +21.2 80 +31 +35 очень
душно
1014.4 1004.0 +22.0 +26.2
09 10.07 ЮВ 4
{5}
15 км 1/1 600 м
[Cu hum]
+29.1 +19.1 55 +35 +46 очень
душно
1014.6 1004.3
12 10.07 ЮЗ 4
{7}
20 км 3/3 630 м
[Cu med, cong]
+27.8 +20.8 66 +35 +44 очень
душно
1014.3 1004.0
15 10.07 СЗ 3
{7}
20 км 1/1 700 м
[Cu hum Ci ing]
+30.4 +19.7 53 +37 +42 очень
душно
1013.7 1003.5
18 10.07 С 6
{8}
15 км 4/3 600 м
[Cu Sc Ac cuf Ci ing]
+25.8 +21.0 75 +32 +32 очень
душно
1014.4 1004.0 +25.2 +31.3
21 10.07 СЗ 2
{7}
12 км ясно +23.2 +20.7 86 +31 +31 очень
душно
1015.4 1004.9
00 11.07 З 3
{7}
12 км ясно +22.9 +19.3 80 +29 +29 очень
душно
1014.9 1004.4
03 11.07 З 1
{4}
9000 м мгла 1/0
[Ci fib]
+21.7 +20.4 92 +27 +27 душно 1014.2 1003.7
06 11.07 СЗ 3
{5}
8000 м 1/1 360 м
[Sc]
+24.1 +20.8 82 +30 +33 очень
душно
1015.0 1004.6 +21.1 +25.5
09 11.07 СЗ 5
{7}
15 км 1/1 840 м
[Cu hum]
+28.3 +17.7 53 +33 +41 очень
душно
1015.5 1005.2
12 11.07 З 5
{9}
20 км 4/4 840 м
[Cu hum]
+29.1 +18.4 52 +34 +41 очень
душно
1015.1 1004.8
15 11.07 З 6
{9}
15 км 1/1 960 м
[Cu hum]
+28.2 +19.4 59 +34 +37 очень
душно
1014.6 1004.3
18 11.07 З 4
{9}
15 км 1/1 450 м
[Sc]
+25.4 +21.1 77 +32 +32 очень
душно
1014.9 1004.5 +24.5 +30.6
21 11.07 З 4
{6}
15 км 1/1 420 м
[Sc]
+23.9 +21.8 88 +31 +31 очень
душно
1016.1 1005.7
00 12.07 З 2
{6}
15 км 1/1 420 м
[Sc]
+23.5 +21.5 89 +30 +30 очень
душно
1015.8 1005.3
03 12.07 СЗ 2
{7}
12 км 1/1 360 м
[Sc]
+23.2 +21.6 91 +31 +31 очень
душно
1015.3 1004.8
06 12.07 С 3
{7}
15 км ясно +25.3 +19.7 71 +31 +34 очень
душно
1015.9 1005.5 +22.6 +25.6
09 12.07 СЗ 4
{6}
20 км ясно +31.0 +13.8 35 +32 +45 жарко 1016.8 1006.5
12 12.07 С 2
{8}
20 км ясно +33.0 +12.1 28 +33 +55 опасность
солнечного
удара
1016.3 1006.1
15 12.07 З 5
{7}
20 км 1/1 900 м
[Cu hum]
+31.8 +14.5 35 +34 +37 душно 1015.7 1005.4
18 12.07 В 1
{7}
15 км ясно +28.4 +17.8 53 +33 +33 очень
душно
1016.1 1005.8 +25.6 +33.5
21 12.07 З 1
{5}
15 км ясно +24.9 +19.5 72 +30 +30 душно 1016.9 1006.5
00 13.07 СЗ 2
{5}
15 км ясно +24.2 +17.1 65 +28 +28 душно 1016.9 1006.4
03 13.07 З 1
{3}
12 км ясно +23.1 +14.5 58 +27 +27 душно 1016.2 1005.6
06 13.07 С 1
{3}
15 км ясно +27.9 +14.0 43 +30 +34 жарко 1016.9 1006.5 +22.6 +28.3
09 13.07 С 4
{6}
25 км ясно +33.9 +11.9 26 +34 +46 очень
жарко
1017.6 1007.4
12 13.07 ЮЗ 5
{7}
25 км ясно +33.0 +17.8 40 +37 +48 очень
душно
1017.1 1006.8
15 13.07 З 5
{7}
20 км ясно +32.6 +12.6 30 +33 +38 жарко 1016.3 1006.0
18 13.07 З 4
{7}
18 км ясно +28.5 +18.3 54 +33 +33 очень
душно
1015.8 1005.4 +28.3 +35.7
21 13.07 ЮЗ 1
{6}
15 км ясно +26.8 +16.0 52 +30 +30 душно 1016.6 1006.2
00 14.07 С 2
{6}
15 км ясно +25.6 +16.8 58 +29 +29 душно 1016.5 1006.1
03 14.07 СЗ 1
{3}
15 км 1/1 450 м
[Sc]
+24.1 +10.6 43 +25 +25 комфорт 1016.3 1005.7
06 14.07 З 1
{3}
15 км ясно +29.9 +8.5 26 +29 +34 жарко 1016.2 1005.9 +23.1 +30.1
09 14.07 СВ 3
{5}
15 км ясно +34.6 +8.8 21 +33 +48 жарко 1016.7 1006.5
12 14.07 Ю 4
{6}
20 км ясно +33.2 +13.1 30 +34 +49 очень
жарко
1016.4 1006.2
15 14.07 ЮЗ 4
{6}
20 км ясно +32.2 +14.9 35 +34 +40 душно 1015.5 1005.3
18 14.07 Ю 3
{6}
15 км ясно +29.7 +14.8 40 +32 +32 душно 1014.8 1004.5 +29.5 +35.1
21 14.07 З 1
{4}
12 км ясно +26.6 +16.9 55 +30 +30 душно 1016.0 1005.6
00 15.07 З 3
{4}
12 км ясно +26.3 +15.6 52 +29 +29 жарко 1015.1 1004.7
03 15.07 СЗ 4
{6}
12 км ясно +25.3 +18.6 66 +30 +30 душно 1014.0 1003.6
06 15.07 СЗ 6
{9}
8000 м 4/4 360 м
[Sc]
+25.9 +21.6 77 +33 +34 очень
душно
1014.3 1003.9 +23.9 +29.5
09 15.07 СЗ 7
{11}
10 км 3/3 600 м
[Sc]
+29.5 +21.3 61 +37 +40 очень
душно
1014.5 1004.2
12 15.07 СЗ 8
{12}
12 км 1/1 750 м
[Cu hum]
+30.8 +20.8 55 +38 +42 очень
душно
1013.7 1003.5
15 15.07 СЗ 7
{11}
12 км 1/1 750 м
[Cu hum]
+29.9 +22.0 63 +39 +40 очень
душно
1013.0 1002.8
18 15.07 С 6
{11}
9000 м дым 1/1 600 м
[Cu hum]
+26.6 +22.2 77 +35 +35 очень
душно
1013.0 1002.6 +26.2 +31.7
21 15.07 СЗ 2
{8}
10 км 1/1 570 м
[Cu hum]
+25.6 +22.0 81 +33 +33 очень
душно
1013.7 1003.3
00 16.07 СВ 2
{8}
10 км 1/1 570 м
[Cu hum]
+25.0 +22.4 86 +33 +33 очень
душно
1013.9 1003.5

 

Местоположение метеостанции Malta Airport (Мальта): широта 35.85 долгота 14.48 высота над уровнем моря 91 м.

В архиве по умолчанию представлена погода в Malta Airport за последнюю неделю. Архивные данные за месяц целиком и за предыдущие месяцы, начиная с января 2011 года, Вы можете получить, выбрав интересующий диапазон дат из раскрывающегося списка и нажав кнопку "Ввод!".


*Определитесь, кто Вы:
робот инопланетянин человек

Внимание! Время в таблицах - всемирное. Для получения местного времени необходимо прибавить поправку, которая в Malta Airport равна 1 ч.

Смотрите также архив погоды в соседних городах и на ближайших метеорологических станциях:

Погода в Cozzo Spadaro (Италия) (109 км)
Погода в Gela (Италия) (139 км)
Погода в Siracusa (Италия) (153 км)
Погода в Catania Sigonella (Италия) (177 км)
Погода в Catania Fontanaross (Италия) (187 км)
Погода в Enna (Италия) (192 км)
Погода в Prizzi (Италия) (228 км)
Погода в Gibilmanna (Италия) (240 км)
Погода в Pantelleria (Италия) (249 км)
Погода в Capo Spartivento (Италия) (270 км)

Пояснения к столбцам:

Ветер - указаны скорость ветра в м/с - средняя за 10 мин, порывы в срок и между сроками (в фигурных скобках) и направление, откуда дует ветер: С - северный, СВ - северо-восточный, В - восточный, ЮВ - юго-восточный, Ю - южный, ЮЗ - юго-западный, З - западный, СЗ - северо-западный.
Видимость - горизонтальная дальность видимости в метрах или километрах. При видимости от 1 до 10 км при отсутствии осадков обычно наблюдается дымка, при ухудшении видимости до 1 км и менее - туман. В сухую погоду видимость может ухудшаться дымом, пылью или мглою.
Явления - указаны атмосферные явления, наблюдавшиеся в срок или в последний час перед сроком; фигурными скобками обозначены явления, наблюдавшиеся между сроками (за 1-3 часа до срока); квадратными скобками обозначены град или гололедные отложения с указанием их диаметра в мм.
Облачность - указаны через наклонную черту общая и нижняя облачность в баллах и высота нижней границы облаков в метрах; квадратными скобками обозначены формы облаков: Ci - перистые, Cs - перисто-слоистые, Cc - перисто-кучевые, Ac - высококучевые, As - высокослоистые, Sc - слоисто-кучевые, Ns - слоисто-дождевые, Cu - кучевые, Cb - кучево-дождевые. Подробнее классификацию облаков см. в Атласе облаков (PDF).
T - Температура воздуха - температура, измеренная на высоте 2 м над землей.
Td - Температура точки росы - температура, при понижении до которой содержащийся в воздухе водяной пар достигнет насыщения.
f - Относительная влажность воздуха - влажноcть воздуха, измеренная на высоте 2 м над землей.
Te - Эффективная температура - температура, которую ощущает одетый по сезону человек в тени. Характеристика душности погоды. При расчете учитывается влияние влажности воздуха и скорости ветра на теплоощущения человека.
Tes - Эффективная температура на солнце - температура, которую ощущает человек, с поправкой на солнечный нагрев. Характеристика знойности погоды. Зависит от высоты солнца над горизонтом, облачности и скорости ветра. Ночью, в пасмурную погоду, а также при ветре 12 м/с и более поправка равна нулю.
P - Атмосферное давление - приведенное к уровню моря атмосферное давление.
Po - Атмосферное давление - измеренное на уровне метеостанции атмосферное давление.
Tmin - Минимальная температура - минимум температуры воздуха на высоте 2 м над землей.
Tmax - Максимальная температура - максимум температуры воздуха на высоте 2 м над землей.
R - Количество осадков - Количество выпавших осадков за период времени, мм. При наведении курсора мыши на число - период времени, за который выпало указанное количество осадков.
R24 - Количество осадков - Количество выпавших осадков за 24 часа, мм.
S - Снежный покров - Высота снежного покрова, см. При наведении курсора мыши на число - состояние снежного покрова и степень покрытия местности в баллах.